Location: Asheville, NC
(35.6000°N, 82.5500°W)
Time: 04:43:24
(UTC-04:00)

Vanguard 1 Rocket - Pass Details

Date: 29 January 2018
Orbit: 652 x 4225 km, 34.3° (Epoch: 20 May)

Event Time Altitude Azimuth Distance (km) Brightness Sun altitude
Exits shadow 02:59:03 41° 157° (SSE) 4,496 10.6 -55.2°
Maximum altitude 03:00:43 42° 148° (SSE) 4,367 10.6 -54.9°
Drops below altitude 10° 03:15:17 10° 85° (E) 5,043 11.6 -52.1°
Sets 03:18:39 0° 78° (ENE) 5,644 12.1 -51.4°
